Location: Rio Negrinho
(26.2394°S, 49.4999°W)
Time: 20:16:08
(UTC+00:00)

Cosmos 1844 - Pass Details

Date: 06 October 2020
Orbit: 824 x 866 km, 70.9° (Epoch: 20 October)

Event Time Altitude Azimuth Distance (km) Brightness Sun altitude
Exits shadow 07:33:52 13° 338° (NNW) 2,221 5.5 -18.0°
Maximum altitude 07:38:53 79° 251° (WSW) 869 3.6 -16.9°
Drops below altitude 10° 07:44:39 10° 164° (SSE) 2,504 6.6 -15.6°
Sets 07:47:09 0° 163° (SSE) 3,452 7.3 -15.1°
